Location: Betzi
(47.2343°N, 9.5260°E)
Time: 22:36:48
(UTC+00:00)

Resurs 1-4 Rocket - Pass Details

Date: 27 May 2022
Orbit: 800 x 813 km, 98.7° (Epoch: 29 June)

Event Time Altitude Azimuth Distance (km) Brightness Sun altitude
Rises 02:36:49 0° 2° (N) 3,322 6.1 -8.3°
Reaches altitude 10° 02:39:46 10° 345° (NNW) 2,389 5.0 -8.0°
Maximum altitude 02:43:22 19° 302° (WNW) 1,837 3.8 -7.5°
Drops below altitude 10° 02:46:57 10° 259° (W) 2,383 4.0 -7.1°
Enters shadow 02:48:07 - 251° (WSW) 2,724 4.3 -6.9°
